This is the latest recevied weather packets stored in our database for station/object WP3OF-5. If no packets are shown the sender has not sent any weather packets the latest 10 day(s).
| Time | Temp. | Humidity | Pressure | Rain* | Wind** | Luminosity | Snow |
|---|---|---|---|---|---|---|---|
| 1777727434 | 26.67° C | 71% | 1017.5 hPa | 0 mm | - | - | - |
| 1777727132 | 26.67° C | 73% | 1017.3 hPa | 0 mm | - | - | - |
| 1777726830 | 26.11° C | 76% | 1017.1 hPa | 0 mm | - | - | - |
| 1777726526 | 25.56° C | 78% | 1017.1 hPa | 0 mm | - | - | - |
| 1777726223 | 25.56° C | 78% | 1017.1 hPa | 0 mm | - | - | - |
| 1777725919 | 25° C | 76% | 1017.3 hPa | 0 mm | - | - | - |
| 1777725617 | 24.44° C | 84% | 1017 hPa | 0 mm | - | - | - |
| 1777725315 | 23.89° C | 86% | 1017 hPa | 1.27 mm | - | - | - |
| 1777725011 | 23.33° C | 90% | 1017 hPa | 1.27 mm | - | - | - |
| 1777724708 | 23.33° C | 92% | 1016.8 hPa | 0 mm | - | - | - |
| 1777724405 | 22.78° C | 92% | 1016.7 hPa | 0 mm | - | - | - |
| 1777724103 | 22.78° C | 93% | 1016.8 hPa | 0 mm | - | - | - |
| 1777723800 | 22.22° C | 94% | 1016.8 hPa | 0 mm | - | - | - |
| 1777723496 | 21.67° C | 96% | 1016.9 hPa | 0 mm | - | - | - |
| 1777723193 | 21.67° C | 97% | 1017 hPa | 0 mm | - | - | - |
| 1777722890 | 21.67° C | 97% | 1016.5 hPa | 0 mm | - | - | - |
| 1777722586 | 21.67° C | 97% | 1016.6 hPa | 0 mm | - | - | - |
| 1777722283 | 21.67° C | 98% | 1016.4 hPa | 0 mm | - | - | - |
| 1777721980 | 21.11° C | 98% | 1016.6 hPa | 0 mm | - | - | - |
| 1777721678 | 21.11° C | 98% | 1016.6 hPa | 0 mm | - | - | - |
| 1777721377 | 21.11° C | 98% | 1016.6 hPa | 0 mm | - | - | - |
| 1777721074 | 21.11° C | 98% | 1016.5 hPa | 0 mm | - | - | - |
| 1777720771 | 21.11° C | 98% | 1016.3 hPa | 0 mm | - | - | - |
| 1777720468 | 20.56° C | 99% | 1016.2 hPa | 0 mm | - | - | - |
| 1777720166 | 20.56° C | 99% | 1016.5 hPa | 0 mm | - | - | - |
* Rain latest hour (hover to see other rain measurements)
** Current wind speed in m/s (hover to see current wind gust speed)